Regional Weather Roundup
Issued by NWS Mt. Holly, NJ

Current Version | Previous Version | Text Only | Print | Product List | Glossary On
Versions: 1 2 3 4 5 6 7 8 9 10 11 12 13 14 15 16 17 18 19 20 21 22 23 24 25 26 27 28
000
ASUS41 KPHI 162210
RWRPHI

REGIONAL WEATHER ROUNDUP
NATIONAL WEATHER SERVICE MOUNT HOLLY NJ
600 PM EDT WED APR 16 2014

NOTE:  "FAIR" INDICATES FEW OR NO CLOUDS BELOW 12,000 FEET WITH NO
SIGNIFICANT WEATHER AND/OR OBSTRUCTIONS TO VISIBILITY.

 * = STATION DOES NOT REPORT PRECIPITATION (E.G. RAIN, SNOW, ETC.)
        OR FOG.

NJZ015>026-162300-
SOUTHERN NEW JERSEY

CITY           SKY/WX    TMP DP  RH WIND       PRES   REMARKS
POMONA         SUNNY     47  26  44 SE10      30.42R
RIO GRANDE*    SUNNY     45  27  49 SE10      30.44R
MILLVILLE      SUNNY     48  21  34 NE9       30.42R
WRIGHTSTOWN    SUNNY     47  20  34 N12       30.40S
MOUNT HOLLY    SUNNY     47  20  34 N9        30.43R
TRENTON        SUNNY     46  17  31 N13G23    30.43R

$$
NJZ001>014-162300-
NORTHERN NEW JERSEY

CITY           SKY/WX    TMP DP  RH WIND       PRES   REMARKS
SUSSEX           N/A     46  15  28 N9        30.44R
ANDOVER*         N/A     43  15  32 N10       30.44R
MORRISTOWN     SUNNY     46  14  27 N9G21     30.45R
NEWARK         MOSUNNY   47  14  26 N10G20    30.44R
TETERBORO      SUNNY     49  18  29 NW10      30.43R
CALDWELL       SUNNY     46  14  27 NE9       30.45R
SOMERVILLE     SUNNY     47  14  26 N10       30.43R
ALLAIRE*       SUNNY     46  18  31 N16       30.42R
TOMS RIVER*    SUNNY     46  19  34 N9        30.42S

$$
PAZ043-044-047-054-055-060>062-066>071-162300-
EASTERN PENNSYLVANIA

CITY           SKY/WX    TMP DP  RH WIND       PRES   REMARKS
PHILADELPHIA   MOSUNNY   48  16  27 N13G21    30.44S
NORTH PHILA    SUNNY     49  17  28 N13G22    30.45S
BLUE BELL      SUNNY     46  19  34 NE6       30.43R
DOYLESTOWN     SUNNY     46  16  30 N9        30.43R
QUAKERTOWN*    SUNNY     45  18  33 NW10      30.44S
POTTSTOWN      SUNNY     45  18  34 N13       30.45S
LANCASTER      SUNNY     44  19  36 NE9       30.44R
READING        SUNNY     47  16  29 N7G17     30.44R
ALLENTOWN      SUNNY     46  18  32 NE7       30.44S
MOUNT POCONO   SUNNY     37  15  40 NW12      30.39R WCI  29
HAZLETON       SUNNY     37  12  35 N7G16     30.44S WCI  32
WILKES BARRE   SUNNY     40  17  39 N5        30.45R

$$
DEZALL-MDZ008-012-015-019-020-162300-
DELAWARE AND EASTERN MARYLAND

CITY           SKY/WX    TMP DP  RH WIND       PRES   REMARKS
WILMINGTON     SUNNY     49  19  30 N9        30.44S
DOVER          SUNNY     47  20  33 N14       30.39R
GEORGETOWN     SUNNY     47  20  34 NE12      30.43R
EASTON         SUNNY     48  25  40 N8        30.47R
PATUXENT       MOSUNNY   46  21  37 N13       30.43R
OCEAN CITY     SUNNY     45  27  49 E10       30.42R
WALLOPS ISLAND SUNNY     49  28  44 E18G24    30.41R
CAMBRIDGE      SUNNY     48  21  34 N12       30.43R
SALISBURY      SUNNY     50  24  36 NE9       30.41R

$$
PAZ001-021-NYZ056-072-MDZ011-DCZ001-162300-
OTHER NEARBY LOCATIONS

CITY           SKY/WX    TMP DP  RH WIND       PRES   REMARKS
HARRISBURG     MOSUNNY   47  14  26 N5        30.44S
STATE COLLEGE  SUNNY     43  10  26 SE7       30.42S
WILLIAMSPORT   SUNNY     45  11  25 N6        30.45R
BINGHAMTON     SUNNY     34  14  43 N6        30.44R WCI  29
NEW YORK CITY  SUNNY     48  16  27 MISG      30.45R
BALTIMORE      MOSUNNY   47  16  29 N9        30.44R
WASHINGTON DC  MOSUNNY   50  16  25 N9G20     30.45R

$$



USA.gov is the U.S. government's official web portal to all federal, state and local government web resources and services.